Time,TemperatureF,DewpointF,PressureIn,WindDirection,WindDirectionDegrees,WindSpeedMPH,WindSpeedGustMPH,Humidity,HourlyPrecipIn,Conditions,Clouds,dailyrainin,SoftwareType,DateUTC
2013-03-31 00:00:00,41.1,28.3,29.89,South,180,0.0,0.0,60,0.00,,,0.00,Wunderground v.1.12,2013-03-31 04:00:00,
2013-03-31 00:02:00,40.9,28.1,29.89,South,180,0.0,0.0,60,0.00,,,0.00,Wunderground v.1.12,2013-03-31 04:02:00,
2013-03-31 00:07:00,40.6,27.8,29.89,South,180,0.0,0.0,60,0.00,,,0.00,Wunderground v.1.12,2013-03-31 04:07:00,
2013-03-31 00:12:00,40.5,27.7,29.89,South,180,0.0,0.0,60,0.00,,,0.00,Wunderground v.1.12,2013-03-31 04:12:00,
2013-03-31 00:19:00,39.9,27.1,29.89,South,180,0.0,0.0,60,0.00,,,0.00,Wunderground v.1.12,2013-03-31 04:19:00,
2013-03-31 00:25:00,39.6,27.2,29.89,South,180,0.0,0.0,61,0.00,,,0.00,Wunderground v.1.12,2013-03-31 04:25:00,
2013-03-31 00:32:00,39.1,27.2,29.89,South,180,0.0,0.0,62,0.00,,,0.00,Wunderground v.1.12,2013-03-31 04:32:00,
2013-03-31 00:39:00,38.6,26.7,29.89,South,180,0.0,0.0,62,0.00,,,0.00,Wunderground v.1.12,2013-03-31 04:39:00,
2013-03-31 00:45:00,38.2,27.1,29.88,South,180,0.0,0.0,64,0.00,,,0.00,Wunderground v.1.12,2013-03-31 04:45:00,
2013-03-31 00:51:00,37.9,26.8,29.88,South,180,0.0,0.0,64,0.00,,,0.00,Wunderground v.1.12,2013-03-31 04:51:00,
2013-03-31 00:57:00,37.5,27.2,29.87,South,180,0.0,0.0,66,0.00,,,0.00,Wunderground v.1.12,2013-03-31 04:57:00,
2013-03-31 01:04:00,37.2,27.2,29.87,South,180,0.0,0.0,67,0.00,,,0.00,Wunderground v.1.12,2013-03-31 05:04:00,
2013-03-31 01:09:00,37.0,27.1,29.87,South,180,0.0,0.0,67,0.00,,,0.00,Wunderground v.1.12,2013-03-31 05:09:00,
2013-03-31 01:14:00,36.9,27.3,29.87,South,180,0.0,0.0,68,0.00,,,0.00,Wunderground v.1.12,2013-03-31 05:14:00,
2013-03-31 01:19:00,36.8,27.6,29.87,South,180,0.0,0.0,69,0.00,,,0.00,Wunderground v.1.12,2013-03-31 05:19:00,
2013-03-31 01:25:00,36.6,27.7,29.87,South,180,0.0,0.0,70,0.00,,,0.00,Wunderground v.1.12,2013-03-31 05:25:00,
2013-03-31 01:31:00,36.5,28.0,29.86,South,180,0.0,0.0,71,0.00,,,0.00,Wunderground v.1.12,2013-03-31 05:31:00,
2013-03-31 01:37:00,36.3,27.8,29.86,South,180,0.0,0.0,71,0.00,,,0.00,Wunderground v.1.12,2013-03-31 05:37:00,
2013-03-31 01:44:00,36.2,28.4,29.86,South,180,0.0,0.0,73,0.00,,,0.00,Wunderground v.1.12,2013-03-31 05:44:00,
2013-03-31 01:49:00,36.0,28.2,29.86,South,180,0.0,0.0,73,0.00,,,0.00,Wunderground v.1.12,2013-03-31 05:49:00,
2013-03-31 01:55:00,35.9,28.4,29.86,South,180,0.0,0.0,74,0.00,,,0.00,Wunderground v.1.12,2013-03-31 05:55:00,
2013-03-31 02:00:00,35.6,28.1,29.85,South,180,0.0,0.0,74,0.00,,,0.00,Wunderground v.1.12,2013-03-31 06:00:00,
2013-03-31 02:05:00,35.5,28.4,29.85,South,180,0.0,0.0,75,0.00,,,0.00,Wunderground v.1.12,2013-03-31 06:05:00,
2013-03-31 02:10:00,35.3,28.2,29.85,South,180,0.0,0.0,75,0.00,,,0.00,Wunderground v.1.12,2013-03-31 06:10:00,
2013-03-31 02:15:00,35.2,28.1,29.84,South,180,0.0,0.0,75,0.00,,,0.00,Wunderground v.1.12,2013-03-31 06:15:00,
2013-03-31 02:20:00,35.0,28.2,29.84,South,180,0.0,0.0,76,0.00,,,0.00,Wunderground v.1.12,2013-03-31 06:20:00,
2013-03-31 02:25:00,34.9,28.1,29.84,South,180,0.0,0.0,76,0.00,,,0.00,Wunderground v.1.12,2013-03-31 06:25:00,
2013-03-31 02:30:00,34.9,28.4,29.83,South,180,0.0,0.0,77,0.00,,,0.00,Wunderground v.1.12,2013-03-31 06:30:00,
2013-03-31 02:35:00,34.7,28.2,29.83,South,180,2.0,2.0,77,0.00,,,0.00,Wunderground v.1.12,2013-03-31 06:35:00,
2013-03-31 02:40:00,34.7,28.5,29.83,South,180,0.0,0.0,78,0.00,,,0.00,Wunderground v.1.12,2013-03-31 06:40:00,
2013-03-31 02:45:00,34.7,28.5,29.82,South,180,0.0,0.0,78,0.00,,,0.00,Wunderground v.1.12,2013-03-31 06:45:00,
2013-03-31 02:50:00,34.6,28.4,29.82,South,180,0.0,0.0,78,0.00,,,0.00,Wunderground v.1.12,2013-03-31 06:50:00,
2013-03-31 02:55:00,34.4,28.2,29.82,South,180,0.0,0.0,78,0.00,,,0.00,Wunderground v.1.12,2013-03-31 06:55:00,
2013-03-31 03:00:00,34.3,28.2,29.81,South,180,0.0,0.0,78,0.00,,,0.00,Wunderground v.1.12,2013-03-31 07:00:00,
2013-03-31 03:05:00,34.1,28.0,29.81,South,180,0.0,0.0,78,0.00,,,0.00,Wunderground v.1.12,2013-03-31 07:05:00,
2013-03-31 03:10:00,34.0,27.9,29.81,South,180,0.0,0.0,78,0.00,,,0.00,Wunderground v.1.12,2013-03-31 07:10:00,
2013-03-31 03:15:00,33.8,27.7,29.81,South,180,0.0,0.0,78,0.00,,,0.00,Wunderground v.1.12,2013-03-31 07:15:00,
2013-03-31 03:20:00,33.7,27.6,29.81,South,180,0.0,0.0,78,0.00,,,0.00,Wunderground v.1.12,2013-03-31 07:20:00,
2013-03-31 03:25:00,33.5,27.4,29.81,South,180,0.0,0.0,78,0.00,,,0.00,Wunderground v.1.12,2013-03-31 07:25:00,
2013-03-31 03:30:00,33.4,27.3,29.80,South,180,0.0,0.0,78,0.00,,,0.00,Wunderground v.1.12,2013-03-31 07:30:00,
2013-03-31 03:35:00,33.2,27.1,29.80,South,180,0.0,0.0,78,0.00,,,0.00,Wunderground v.1.12,2013-03-31 07:35:00,
2013-03-31 03:40:00,33.2,27.4,29.80,South,180,0.0,0.0,79,0.00,,,0.00,Wunderground v.1.12,2013-03-31 07:40:00,
2013-03-31 03:45:00,33.2,27.4,29.79,South,180,0.0,0.0,79,0.00,,,0.00,Wunderground v.1.12,2013-03-31 07:45:00,
2013-03-31 03:50:00,33.2,27.7,29.79,South,180,0.0,1.0,80,0.00,,,0.00,Wunderground v.1.12,2013-03-31 07:50:00,
2013-03-31 03:56:00,33.4,27.9,29.79,South,180,0.0,0.0,80,0.00,,,0.00,Wunderground v.1.12,2013-03-31 07:56:00,
2013-03-31 04:01:00,33.5,28.0,29.78,South,180,0.0,0.0,80,0.00,,,0.00,Wunderground v.1.12,2013-03-31 08:01:00,
2013-03-31 04:06:00,33.7,28.2,29.78,South,180,0.0,0.0,80,0.00,,,0.00,Wunderground v.1.12,2013-03-31 08:06:00,
2013-03-31 04:11:00,33.7,28.2,29.78,South,180,0.0,0.0,80,0.00,,,0.00,Wunderground v.1.12,2013-03-31 08:11:00,
2013-03-31 04:16:00,33.8,28.6,29.78,South,180,0.0,0.0,81,0.00,,,0.00,Wunderground v.1.12,2013-03-31 08:16:00,
2013-03-31 04:21:00,34.0,28.8,29.78,South,180,0.0,0.0,81,0.00,,,0.00,Wunderground v.1.12,2013-03-31 08:21:00,
2013-03-31 04:26:00,34.1,28.9,29.78,South,180,0.0,0.0,81,0.00,,,0.00,Wunderground v.1.12,2013-03-31 08:26:00,
2013-03-31 04:31:00,34.1,28.9,29.77,South,180,0.0,0.0,81,0.00,,,0.00,Wunderground v.1.12,2013-03-31 08:31:00,
2013-03-31 04:36:00,34.4,29.2,29.77,South,180,0.0,0.0,81,0.00,,,0.00,Wunderground v.1.12,2013-03-31 08:36:00,
2013-03-31 04:41:00,34.6,29.4,29.76,South,180,0.0,1.0,81,0.00,,,0.00,Wunderground v.1.12,2013-03-31 08:41:00,
2013-03-31 04:46:00,34.7,29.5,29.76,South,180,0.0,1.0,81,0.00,,,0.00,Wunderground v.1.12,2013-03-31 08:46:00,
2013-03-31 04:51:00,34.9,29.4,29.76,South,180,0.0,0.0,80,0.00,,,0.00,Wunderground v.1.12,2013-03-31 08:51:00,
2013-03-31 04:56:00,34.9,29.4,29.75,South,180,0.0,0.0,80,0.00,,,0.00,Wunderground v.1.12,2013-03-31 08:56:00,
2013-03-31 05:01:00,34.9,29.4,29.75,South,180,0.0,0.0,80,0.00,,,0.00,Wunderground v.1.12,2013-03-31 09:01:00,
2013-03-31 05:07:00,35.0,29.5,29.75,South,180,0.0,0.0,80,0.00,,,0.00,Wunderground v.1.12,2013-03-31 09:07:00,
2013-03-31 05:12:00,35.0,29.5,29.75,South,180,0.0,0.0,80,0.00,,,0.00,Wunderground v.1.12,2013-03-31 09:12:00,
2013-03-31 05:17:00,35.2,29.6,29.75,South,180,0.0,0.0,80,0.00,,,0.00,Wunderground v.1.12,2013-03-31 09:17:00,
2013-03-31 05:22:00,35.2,29.6,29.75,South,180,0.0,0.0,80,0.00,,,0.00,Wunderground v.1.12,2013-03-31 09:22:00,
2013-03-31 05:27:00,35.2,29.6,29.74,South,180,0.0,0.0,80,0.00,,,0.00,Wunderground v.1.12,2013-03-31 09:27:00,
2013-03-31 05:32:00,35.3,29.7,29.74,South,180,0.0,0.0,80,0.00,,,0.00,Wunderground v.1.12,2013-03-31 09:32:00,
2013-03-31 05:37:00,35.3,29.7,29.74,South,180,0.0,0.0,80,0.00,,,0.00,Wunderground v.1.12,2013-03-31 09:37:00,
2013-03-31 05:42:00,35.5,29.9,29.73,South,180,0.0,0.0,80,0.00,,,0.00,Wunderground v.1.12,2013-03-31 09:42:00,
2013-03-31 05:47:00,35.5,29.9,29.73,South,180,0.0,0.0,80,0.00,,,0.00,Wunderground v.1.12,2013-03-31 09:47:00,
2013-03-31 05:52:00,35.6,30.0,29.73,South,180,0.0,0.0,80,0.00,,,0.00,Wunderground v.1.12,2013-03-31 09:52:00,
2013-03-31 05:57:00,35.8,30.2,29.73,South,180,0.0,0.0,80,0.00,,,0.00,Wunderground v.1.12,2013-03-31 09:57:00,
2013-03-31 06:02:00,35.9,30.3,29.73,South,180,0.0,0.0,80,0.00,,,0.00,Wunderground v.1.12,2013-03-31 10:02:00,
2013-03-31 06:07:00,35.9,30.3,29.73,South,180,0.0,0.0,80,0.00,,,0.00,Wunderground v.1.12,2013-03-31 10:07:00,
2013-03-31 06:12:00,36.0,30.4,29.72,South,180,0.0,0.0,80,0.00,,,0.00,Wunderground v.1.12,2013-03-31 10:12:00,
2013-03-31 06:17:00,36.0,30.4,29.72,South,180,0.0,0.0,80,0.00,,,0.00,Wunderground v.1.12,2013-03-31 10:17:00,
2013-03-31 06:22:00,36.2,30.6,29.72,South,180,0.0,0.0,80,0.00,,,0.00,Wunderground v.1.12,2013-03-31 10:22:00,
2013-03-31 06:27:00,36.2,30.6,29.72,South,180,0.0,0.0,80,0.00,,,0.00,Wunderground v.1.12,2013-03-31 10:27:00,
2013-03-31 06:32:00,36.3,30.7,29.72,South,180,0.0,0.0,80,0.00,,,0.00,Wunderground v.1.12,2013-03-31 10:32:00,
2013-03-31 06:37:00,36.3,30.7,29.72,South,180,0.0,0.0,80,0.00,,,0.00,Wunderground v.1.12,2013-03-31 10:37:00,
2013-03-31 06:42:00,36.5,30.9,29.71,South,180,0.0,0.0,80,0.00,,,0.00,Wunderground v.1.12,2013-03-31 10:42:00,
2013-03-31 06:47:00,36.6,31.0,29.71,South,180,0.0,0.0,80,0.00,,,0.00,Wunderground v.1.12,2013-03-31 10:47:00,
2013-03-31 06:52:00,36.8,31.2,29.71,South,180,0.0,0.0,80,0.00,,,0.00,Wunderground v.1.12,2013-03-31 10:52:00,
2013-03-31 06:57:00,36.9,31.3,29.71,South,180,0.0,2.0,80,0.00,,,0.00,Wunderground v.1.12,2013-03-31 10:57:00,
2013-03-31 07:02:00,37.0,31.4,29.71,South,180,0.0,0.0,80,0.00,,,0.00,Wunderground v.1.12,2013-03-31 11:02:00,
2013-03-31 07:08:00,37.0,31.4,29.71,South,180,0.0,0.0,80,0.00,,,0.00,Wunderground v.1.12,2013-03-31 11:08:00,
2013-03-31 07:13:00,37.0,31.4,29.71,South,180,0.0,1.0,80,0.00,,,0.00,Wunderground v.1.12,2013-03-31 11:13:00,
2013-03-31 07:18:00,37.2,31.6,29.71,South,180,0.0,0.0,80,0.00,,,0.00,Wunderground v.1.12,2013-03-31 11:18:00,
2013-03-31 07:23:00,37.2,31.6,29.71,South,180,0.0,0.0,80,0.00,,,0.00,Wunderground v.1.12,2013-03-31 11:23:00,
2013-03-31 07:28:00,37.5,31.9,29.70,South,180,1.0,2.0,80,0.00,,,0.00,Wunderground v.1.12,2013-03-31 11:28:00,
2013-03-31 07:33:00,37.6,32.0,29.70,South,180,1.0,1.0,80,0.00,,,0.00,Wunderground v.1.12,2013-03-31 11:33:00,
2013-03-31 07:38:00,37.9,32.3,29.70,South,180,1.0,1.0,80,0.00,,,0.00,Wunderground v.1.12,2013-03-31 11:38:00,
2013-03-31 07:44:00,38.0,32.1,29.71,South,180,2.0,2.0,79,0.00,,,0.00,Wunderground v.1.12,2013-03-31 11:44:00,
2013-03-31 07:49:00,38.2,32.3,29.71,South,180,0.0,2.0,79,0.00,,,0.00,Wunderground v.1.12,2013-03-31 11:49:00,
2013-03-31 07:54:00,38.5,32.6,29.71,South,180,0.0,3.0,79,0.00,,,0.00,Wunderground v.1.12,2013-03-31 11:54:00,
2013-03-31 07:59:00,38.8,32.8,29.71,South,180,0.0,4.0,79,0.00,,,0.00,Wunderground v.1.12,2013-03-31 11:59:00,
2013-03-31 08:04:00,39.2,32.9,29.71,South,180,1.0,3.0,78,0.00,,,0.00,Wunderground v.1.12,2013-03-31 12:04:00,
2013-03-31 08:10:00,39.6,33.0,29.71,South,180,1.0,1.0,77,0.00,,,0.00,Wunderground v.1.12,2013-03-31 12:10:00,
2013-03-31 08:15:00,39.9,32.9,29.70,South,180,2.0,2.0,76,0.00,,,0.00,Wunderground v.1.12,2013-03-31 12:15:00,
2013-03-31 08:20:00,40.5,33.2,29.70,South,180,2.0,2.0,75,0.00,,,0.00,Wunderground v.1.12,2013-03-31 12:20:00,
2013-03-31 08:25:00,40.9,33.2,29.70,South,180,1.0,1.0,74,0.00,,,0.00,Wunderground v.1.12,2013-03-31 12:25:00,
2013-03-31 08:30:00,41.2,33.2,29.70,South,180,2.0,2.0,73,0.00,,,0.00,Wunderground v.1.12,2013-03-31 12:30:00,
2013-03-31 08:35:00,41.6,33.2,29.70,South,180,2.0,3.0,72,0.00,,,0.00,Wunderground v.1.12,2013-03-31 12:35:00,
2013-03-31 08:40:00,41.8,33.1,29.70,South,180,2.0,4.0,71,0.00,,,0.00,Wunderground v.1.12,2013-03-31 12:40:00,
2013-03-31 08:45:00,41.9,33.5,29.69,South,180,2.0,2.0,72,0.00,,,0.00,Wunderground v.1.12,2013-03-31 12:45:00,
2013-03-31 08:50:00,42.1,34.1,29.69,SW,220,4.0,6.0,73,0.00,,,0.00,Wunderground v.1.12,2013-03-31 12:50:00,
2013-03-31 08:55:00,42.1,34.4,29.69,SW,228,2.0,3.0,74,0.00,,,0.00,Wunderground v.1.12,2013-03-31 12:55:00,
2013-03-31 09:00:00,42.1,34.4,29.69,SW,232,2.0,3.0,74,0.00,,,0.00,Wunderground v.1.12,2013-03-31 13:00:00,
2013-03-31 09:05:00,42.1,34.7,29.69,SW,231,2.0,3.0,75,0.00,,,0.00,Wunderground v.1.12,2013-03-31 13:05:00,
2013-03-31 09:10:00,42.1,34.7,29.69,SW,231,5.0,5.0,75,0.00,,,0.00,Wunderground v.1.12,2013-03-31 13:10:00,
2013-03-31 09:15:00,41.9,34.9,29.69,SW,231,2.0,3.0,76,0.00,,,0.00,Wunderground v.1.12,2013-03-31 13:15:00,
2013-03-31 09:20:00,41.9,34.9,29.69,SW,231,1.0,2.0,76,0.00,,,0.00,Wunderground v.1.12,2013-03-31 13:20:00,
2013-03-31 09:25:00,41.8,35.4,29.69,SW,232,4.0,4.0,78,0.00,,,0.01,Wunderground v.1.12,2013-03-31 13:25:00,
2013-03-31 09:30:00,41.8,35.4,29.69,SW,232,2.0,2.0,78,0.00,,,0.01,Wunderground v.1.12,2013-03-31 13:30:00,
2013-03-31 09:35:00,41.8,36.1,29.69,SW,232,0.0,1.0,80,0.05,,,0.02,Wunderground v.1.12,2013-03-31 13:35:00,
2013-03-31 09:40:00,41.6,36.2,29.69,SW,232,0.0,1.0,81,0.05,,,0.02,Wunderground v.1.12,2013-03-31 13:40:00,
2013-03-31 09:45:00,41.6,36.5,29.68,SW,232,2.0,4.0,82,0.05,,,0.00,Wunderground v.1.12,2013-03-31 13:45:00,
2013-03-31 09:50:00,41.6,36.5,29.68,SW,232,1.0,2.0,82,0.04,,,0.00,Wunderground v.1.12,2013-03-31 13:50:00,
2013-03-31 09:55:00,41.6,36.8,29.68,SW,232,1.0,2.0,83,0.00,,,0.00,Wunderground v.1.12,2013-03-31 13:55:00,
2013-03-31 10:00:00,41.6,37.1,29.67,SW,230,4.0,5.0,84,0.00,,,0.00,Wunderground v.1.12,2013-03-31 14:00:00,
2013-03-31 10:05:00,41.6,37.1,29.67,SW,229,1.0,4.0,84,0.00,,,0.00,Wunderground v.1.12,2013-03-31 14:05:00,
2013-03-31 10:10:00,41.6,37.4,29.67,SW,225,2.0,5.0,85,0.00,,,0.00,Wunderground v.1.12,2013-03-31 14:10:00,
2013-03-31 10:15:00,41.6,37.4,29.66,WSW,241,2.0,4.0,85,0.00,,,0.00,Wunderground v.1.12,2013-03-31 14:15:00,
2013-03-31 10:20:00,41.8,37.6,29.66,SW,233,4.0,5.0,85,0.00,,,0.01,Wunderground v.1.12,2013-03-31 14:20:00,
2013-03-31 10:25:00,41.8,37.9,29.66,WSW,237,4.0,6.0,86,0.00,,,0.01,Wunderground v.1.12,2013-03-31 14:25:00,
2013-03-31 10:30:00,41.9,38.0,29.67,WSW,248,2.0,5.0,86,0.00,,,0.01,Wunderground v.1.12,2013-03-31 14:30:00,
2013-03-31 10:35:00,42.1,38.5,29.67,WSW,242,4.0,5.0,87,0.00,,,0.01,Wunderground v.1.12,2013-03-31 14:35:00,
2013-03-31 10:40:00,42.3,39.0,29.67,SW,234,2.0,4.0,88,0.00,,,0.01,Wunderground v.1.12,2013-03-31 14:40:00,
2013-03-31 10:45:00,42.6,39.3,29.66,West,259,4.0,5.0,88,0.00,,,0.01,Wunderground v.1.12,2013-03-31 14:45:00,
2013-03-31 10:50:00,42.9,39.9,29.66,WSW,246,0.0,4.0,89,0.00,,,0.01,Wunderground v.1.12,2013-03-31 14:50:00,
2013-03-31 10:55:00,43.3,40.3,29.66,WSW,237,9.0,9.0,89,0.00,,,0.01,Wunderground v.1.12,2013-03-31 14:55:00,
2013-03-31 11:00:00,43.3,40.3,29.66,SW,235,5.0,6.0,89,0.00,,,0.01,Wunderground v.1.12,2013-03-31 15:00:00,
2013-03-31 11:05:00,43.5,40.5,29.66,WSW,237,5.0,5.0,89,0.00,,,0.01,Wunderground v.1.12,2013-03-31 15:05:00,
2013-03-31 11:10:00,43.6,40.6,29.66,WSW,241,4.0,9.0,89,0.00,,,0.01,Wunderground v.1.12,2013-03-31 15:10:00,
2013-03-31 11:15:00,43.9,40.9,29.66,WSW,241,4.0,5.0,89,0.00,,,0.01,Wunderground v.1.12,2013-03-31 15:15:00,
2013-03-31 11:20:00,44.3,41.3,29.66,SSW,212,6.0,9.0,89,0.00,,,0.01,Wunderground v.1.12,2013-03-31 15:20:00,
2013-03-31 11:25:00,44.5,41.5,29.66,SW,236,6.0,8.0,89,0.00,,,0.01,Wunderground v.1.12,2013-03-31 15:25:00,
2013-03-31 11:30:00,44.6,41.6,29.66,SW,224,4.0,6.0,89,0.00,,,0.01,Wunderground v.1.12,2013-03-31 15:30:00,
2013-03-31 11:35:00,44.8,41.8,29.66,SSW,212,5.0,8.0,89,0.00,,,0.01,Wunderground v.1.12,2013-03-31 15:35:00,
2013-03-31 11:40:00,44.8,41.5,29.66,WSW,241,7.0,7.0,88,0.00,,,0.01,Wunderground v.1.12,2013-03-31 15:40:00,
2013-03-31 11:45:00,44.8,41.5,29.66,SW,233,2.0,6.0,88,0.00,,,0.01,Wunderground v.1.12,2013-03-31 15:45:00,
2013-03-31 11:50:00,45.1,41.8,29.66,SW,227,4.0,5.0,88,0.00,,,0.01,Wunderground v.1.12,2013-03-31 15:50:00,
2013-03-31 11:55:00,45.2,41.9,29.66,SW,235,6.0,8.0,88,0.00,,,0.01,Wunderground v.1.12,2013-03-31 15:55:00,
2013-03-31 12:00:00,45.7,42.3,29.66,SW,222,2.0,7.0,88,0.00,,,0.01,Wunderground v.1.12,2013-03-31 16:00:00,
2013-03-31 12:05:00,46.1,42.7,29.66,WSW,241,5.0,10.0,88,0.00,,,0.01,Wunderground v.1.12,2013-03-31 16:05:00,
2013-03-31 12:10:00,46.4,42.7,29.66,WSW,241,6.0,9.0,87,0.00,,,0.01,Wunderground v.1.12,2013-03-31 16:10:00,
2013-03-31 12:15:00,46.7,43.0,29.66,WSW,252,5.0,9.0,87,0.00,,,0.01,Wunderground v.1.12,2013-03-31 16:15:00,
2013-03-31 12:20:00,47.1,43.4,29.66,WSW,256,7.0,12.0,87,0.00,,,0.01,Wunderground v.1.12,2013-03-31 16:20:00,
2013-03-31 12:25:00,47.7,43.7,29.66,SW,231,8.0,9.0,86,0.00,,,0.01,Wunderground v.1.12,2013-03-31 16:25:00,
2013-03-31 12:30:00,47.6,43.3,29.66,WSW,239,5.0,10.0,85,0.00,,,0.01,Wunderground v.1.12,2013-03-31 16:30:00,
2013-03-31 12:36:00,47.7,43.1,29.66,SSW,211,5.0,10.0,84,0.00,,,0.01,Wunderground v.1.12,2013-03-31 16:36:00,
2013-03-31 12:41:00,47.7,43.1,29.66,SW,235,4.0,6.0,84,0.00,,,0.01,Wunderground v.1.12,2013-03-31 16:41:00,
2013-03-31 12:45:00,48.3,43.7,29.65,West,260,8.0,8.0,84,0.00,,,0.01,Wunderground v.1.12,2013-03-31 16:45:00,
2013-03-31 12:50:00,49.6,45.0,29.65,WSW,252,7.0,9.0,84,0.00,,,0.01,Wunderground v.1.12,2013-03-31 16:50:00,
2013-03-31 12:55:00,50.5,44.9,29.65,SW,221,4.0,5.0,81,0.00,,,0.01,Wunderground v.1.12,2013-03-31 16:55:00,
2013-03-31 13:00:00,50.8,44.2,29.64,WSW,248,6.0,11.0,78,0.00,,,0.01,Wunderground v.1.12,2013-03-31 17:00:00,
2013-03-31 13:06:00,50.5,43.2,29.64,West,273,4.0,6.0,76,0.00,,,0.01,Wunderground v.1.12,2013-03-31 17:06:00,
2013-03-31 13:10:00,50.5,42.5,29.64,West,267,8.0,8.0,74,0.00,,,0.01,Wunderground v.1.12,2013-03-31 17:10:00,
2013-03-31 13:15:00,50.7,42.0,29.64,SW,223,6.0,10.0,72,0.00,,,0.01,Wunderground v.1.12,2013-03-31 17:15:00,
2013-03-31 13:20:00,51.0,41.9,29.64,WNW,287,9.0,11.0,71,0.00,,,0.01,Wunderground v.1.12,2013-03-31 17:20:00,
2013-03-31 13:25:00,51.6,41.8,29.64,SW,227,8.0,14.0,69,0.00,,,0.01,Wunderground v.1.12,2013-03-31 17:25:00,
2013-03-31 13:30:00,52.5,41.9,29.63,SW,231,8.0,10.0,67,0.00,,,0.01,Wunderground v.1.12,2013-03-31 17:30:00,
2013-03-31 13:36:00,52.5,39.8,29.63,WSW,246,12.0,12.0,62,0.00,,,0.01,Wunderground v.1.12,2013-03-31 17:36:00,
2013-03-31 13:41:00,52.5,40.3,29.63,SW,224,6.0,13.0,63,0.00,,,0.01,Wunderground v.1.12,2013-03-31 17:41:00,
2013-03-31 13:46:00,53.3,39.3,29.63,WNW,302,11.0,14.0,59,0.00,,,0.01,Wunderground v.1.12,2013-03-31 17:46:00,
2013-03-31 13:51:00,54.2,39.7,29.63,SW,221,9.0,12.0,58,0.00,,,0.01,Wunderground v.1.12,2013-03-31 17:51:00,
2013-03-31 13:56:00,54.2,39.7,29.62,SW,236,7.0,9.0,58,0.00,,,0.01,Wunderground v.1.12,2013-03-31 17:56:00,
2013-03-31 14:01:00,54.7,39.8,29.62,WSW,246,13.0,13.0,57,0.00,,,0.01,Wunderground v.1.12,2013-03-31 18:01:00,
2013-03-31 14:06:00,55.1,40.1,29.62,SW,233,10.0,14.0,57,0.00,,,0.01,Wunderground v.1.12,2013-03-31 18:06:00,
2013-03-31 14:12:00,55.6,40.1,29.62,West,273,13.0,14.0,56,0.00,,,0.01,Wunderground v.1.12,2013-03-31 18:12:00,
2013-03-31 14:17:00,55.9,40.0,29.62,WNW,295,9.0,13.0,55,0.00,,,0.01,Wunderground v.1.12,2013-03-31 18:17:00,
2013-03-31 14:22:00,56.3,38.4,29.62,West,265,8.0,14.0,51,0.00,,,0.01,Wunderground v.1.12,2013-03-31 18:22:00,
2013-03-31 14:27:00,56.9,38.9,29.61,WSW,238,13.0,16.0,51,0.00,,,0.01,Wunderground v.1.12,2013-03-31 18:27:00,
2013-03-31 14:32:00,57.3,38.8,29.61,SW,235,6.0,11.0,50,0.00,,,0.01,Wunderground v.1.12,2013-03-31 18:32:00,
2013-03-31 14:37:00,57.6,38.6,29.61,West,271,11.0,14.0,49,0.00,,,0.01,Wunderground v.1.12,2013-03-31 18:37:00,
2013-03-31 14:42:00,58.0,37.9,29.61,WSW,253,9.0,11.0,47,0.00,,,0.01,Wunderground v.1.12,2013-03-31 18:42:00,
2013-03-31 14:47:00,58.0,37.9,29.61,WNW,289,12.0,14.0,47,0.00,,,0.01,Wunderground v.1.12,2013-03-31 18:47:00,
2013-03-31 14:52:00,58.3,37.6,29.61,WNW,287,7.0,11.0,46,0.00,,,0.01,Wunderground v.1.12,2013-03-31 18:52:00,
2013-03-31 14:57:00,58.0,37.3,29.60,WNW,289,8.0,11.0,46,0.00,,,0.01,Wunderground v.1.12,2013-03-31 18:57:00,
2013-03-31 15:02:00,58.3,36.5,29.60,West,274,6.0,12.0,44,0.00,,,0.01,Wunderground v.1.12,2013-03-31 19:02:00,
2013-03-31 15:07:00,58.7,36.8,29.60,West,268,12.0,13.0,44,0.00,,,0.01,Wunderground v.1.12,2013-03-31 19:07:00,
2013-03-31 15:12:00,59.2,36.1,29.60,West,267,10.0,13.0,42,0.00,,,0.01,Wunderground v.1.12,2013-03-31 19:12:00,
2013-03-31 15:17:00,58.9,35.8,29.60,WSW,247,5.0,14.0,42,0.00,,,0.01,Wunderground v.1.12,2013-03-31 19:17:00,
2013-03-31 15:22:00,58.3,35.3,29.60,West,264,11.0,12.0,42,0.00,,,0.01,Wunderground v.1.12,2013-03-31 19:22:00,
2013-03-31 15:27:00,58.7,34.4,29.59,WNW,284,11.0,14.0,40,0.00,,,0.01,Wunderground v.1.12,2013-03-31 19:27:00,
2013-03-31 15:32:00,59.3,35.6,29.59,WSW,244,9.0,13.0,41,0.00,,,0.01,Wunderground v.1.12,2013-03-31 19:32:00,
2013-03-31 15:38:00,59.6,34.6,29.59,NW,304,8.0,14.0,39,0.00,,,0.01,Wunderground v.1.12,2013-03-31 19:38:00,
2013-03-31 15:43:00,59.0,33.4,29.59,WSW,258,7.0,12.0,38,0.00,,,0.01,Wunderground v.1.12,2013-03-31 19:43:00,
2013-03-31 15:49:00,58.7,33.8,29.59,NW,304,6.0,15.0,39,0.00,,,0.01,Wunderground v.1.12,2013-03-31 19:49:00,
2013-03-31 15:54:00,59.2,33.6,29.59,WSW,243,7.0,12.0,38,0.00,,,0.01,Wunderground v.1.12,2013-03-31 19:54:00,
2013-03-31 15:59:00,59.8,32.8,29.59,West,266,8.0,14.0,36,0.00,,,0.01,Wunderground v.1.12,2013-03-31 19:59:00,
2013-03-31 16:04:00,60.1,32.3,29.59,WSW,241,11.0,14.0,35,0.00,,,0.01,Wunderground v.1.12,2013-03-31 20:04:00,
2013-03-31 16:09:00,60.4,32.6,29.59,WSW,242,11.0,13.0,35,0.00,,,0.01,Wunderground v.1.12,2013-03-31 20:09:00,
2013-03-31 16:14:00,60.5,32.7,29.59,West,275,9.0,15.0,35,0.00,,,0.01,Wunderground v.1.12,2013-03-31 20:14:00,
2013-03-31 16:20:00,60.7,32.1,29.59,West,276,3.0,9.0,34,0.00,,,0.01,Wunderground v.1.12,2013-03-31 20:20:00,
2013-03-31 16:25:00,60.5,32.0,29.59,West,277,7.0,9.0,34,0.00,,,0.01,Wunderground v.1.12,2013-03-31 20:25:00,
2013-03-31 16:30:00,60.5,31.2,29.58,WSW,239,9.0,10.0,33,0.00,,,0.01,Wunderground v.1.12,2013-03-31 20:30:00,
2013-03-31 16:35:00,60.2,29.4,29.58,NW,307,4.0,9.0,31,0.00,,,0.01,Wunderground v.1.12,2013-03-31 20:35:00,
2013-03-31 16:40:00,60.1,28.5,29.58,West,275,7.0,8.0,30,0.00,,,0.01,Wunderground v.1.12,2013-03-31 20:40:00,
2013-03-31 16:45:00,59.9,28.4,29.57,WSW,241,13.0,14.0,30,0.00,,,0.01,Wunderground v.1.12,2013-03-31 20:45:00,
2013-03-31 16:50:00,60.1,29.3,29.57,WNW,284,8.0,13.0,31,0.00,,,0.01,Wunderground v.1.12,2013-03-31 20:50:00,
2013-03-31 16:55:00,60.2,29.4,29.57,NW,318,11.0,12.0,31,0.00,,,0.01,Wunderground v.1.12,2013-03-31 20:55:00,
2013-03-31 17:00:00,60.4,29.6,29.57,WNW,289,10.0,14.0,31,0.00,,,0.01,Wunderground v.1.12,2013-03-31 21:00:00,
2013-03-31 17:05:00,59.5,29.6,29.57,West,272,12.0,13.0,32,0.00,,,0.01,Wunderground v.1.12,2013-03-31 21:05:00,
2013-03-31 17:10:00,59.6,30.4,29.57,WNW,294,17.0,17.0,33,0.00,,,0.01,Wunderground v.1.12,2013-03-31 21:10:00,
2013-03-31 17:15:00,59.6,31.2,29.57,WNW,303,7.0,10.0,34,0.00,,,0.01,Wunderground v.1.12,2013-03-31 21:15:00,
2013-03-31 17:20:00,59.9,29.2,29.57,WNW,296,14.0,14.0,31,0.00,,,0.01,Wunderground v.1.12,2013-03-31 21:20:00,
2013-03-31 17:25:00,59.6,28.9,29.57,West,264,11.0,13.0,31,0.00,,,0.01,Wunderground v.1.12,2013-03-31 21:25:00,
2013-03-31 17:30:00,59.3,29.4,29.57,West,277,10.0,11.0,32,0.00,,,0.01,Wunderground v.1.12,2013-03-31 21:30:00,
2013-03-31 17:35:00,59.6,29.7,29.57,WNW,300,7.0,11.0,32,0.00,,,0.01,Wunderground v.1.12,2013-03-31 21:35:00,
2013-03-31 17:40:00,59.9,29.9,29.57,West,261,8.0,11.0,32,0.00,,,0.01,Wunderground v.1.12,2013-03-31 21:40:00,
2013-03-31 17:45:00,59.8,29.1,29.57,West,266,7.0,12.0,31,0.00,,,0.01,Wunderground v.1.12,2013-03-31 21:45:00,
2013-03-31 17:50:00,59.3,29.4,29.57,SW,232,8.0,13.0,32,0.00,,,0.01,Wunderground v.1.12,2013-03-31 21:50:00,
2013-03-31 17:55:00,58.6,29.6,29.57,West,271,9.0,10.0,33,0.00,,,0.01,Wunderground v.1.12,2013-03-31 21:55:00,
2013-03-31 18:00:00,58.6,30.3,29.57,West,273,7.0,9.0,34,0.00,,,0.01,Wunderground v.1.12,2013-03-31 22:00:00,
2013-03-31 18:05:00,58.6,28.8,29.57,SW,220,11.0,11.0,32,0.00,,,0.01,Wunderground v.1.12,2013-03-31 22:05:00,
2013-03-31 18:10:00,58.0,29.8,29.57,WSW,239,8.0,14.0,34,0.00,,,0.01,Wunderground v.1.12,2013-03-31 22:10:00,
2013-03-31 18:15:00,57.3,29.1,29.57,West,266,8.0,10.0,34,0.00,,,0.01,Wunderground v.1.12,2013-03-31 22:15:00,
2013-03-31 18:20:00,57.0,28.9,29.57,WSW,252,9.0,18.0,34,0.00,,,0.01,Wunderground v.1.12,2013-03-31 22:20:00,
2013-03-31 18:25:00,57.0,29.6,29.57,WSW,253,14.0,20.0,35,0.00,,,0.01,Wunderground v.1.12,2013-03-31 22:25:00,
2013-03-31 18:30:00,56.9,28.8,29.57,WSW,255,8.0,11.0,34,0.00,,,0.01,Wunderground v.1.12,2013-03-31 22:30:00,
2013-03-31 18:35:00,56.6,29.2,29.57,WNW,293,7.0,10.0,35,0.00,,,0.01,Wunderground v.1.12,2013-03-31 22:35:00,
2013-03-31 18:40:00,56.5,29.8,29.57,WSW,256,7.0,10.0,36,0.00,,,0.01,Wunderground v.1.12,2013-03-31 22:40:00,
2013-03-31 18:45:00,56.5,29.8,29.57,West,280,4.0,10.0,36,0.00,,,0.01,Wunderground v.1.12,2013-03-31 22:45:00,
2013-03-31 18:50:00,56.3,29.7,29.57,WSW,247,5.0,9.0,36,0.00,,,0.01,Wunderground v.1.12,2013-03-31 22:50:00,
2013-03-31 18:55:00,56.2,30.2,29.57,WNW,283,5.0,7.0,37,0.00,,,0.01,Wunderground v.1.12,2013-03-31 22:55:00,
2013-03-31 19:00:00,56.3,29.7,29.57,WNW,295,7.0,11.0,36,0.00,,,0.01,Wunderground v.1.12,2013-03-31 23:00:00,
2013-03-31 19:05:00,56.3,29.7,29.57,West,277,12.0,13.0,36,0.00,,,0.01,Wunderground v.1.12,2013-03-31 23:05:00,
2013-03-31 19:10:00,56.2,29.6,29.57,West,269,12.0,20.0,36,0.00,,,0.01,Wunderground v.1.12,2013-03-31 23:10:00,
2013-03-31 19:15:00,56.0,29.4,29.58,WSW,248,6.0,11.0,36,0.00,,,0.01,Wunderground v.1.12,2013-03-31 23:15:00,
2013-03-31 19:20:00,55.9,29.3,29.58,WSW,255,11.0,11.0,36,0.00,,,0.01,Wunderground v.1.12,2013-03-31 23:20:00,
2013-03-31 19:25:00,55.9,29.3,29.58,West,272,14.0,14.0,36,0.00,,,0.01,Wunderground v.1.12,2013-03-31 23:25:00,
2013-03-31 19:30:00,55.6,29.0,29.58,WNW,291,12.0,16.0,36,0.00,,,0.01,Wunderground v.1.12,2013-03-31 23:30:00,
2013-03-31 19:35:00,55.3,29.4,29.58,WNW,283,10.0,14.0,37,0.00,,,0.01,Wunderground v.1.12,2013-03-31 23:35:00,
2013-03-31 19:40:00,55.0,30.5,29.58,NW,304,14.0,14.0,39,0.00,,,0.01,Wunderground v.1.12,2013-03-31 23:40:00,
2013-03-31 19:45:00,54.7,30.8,29.58,West,273,7.0,14.0,40,0.00,,,0.01,Wunderground v.1.12,2013-03-31 23:45:00,
2013-03-31 19:50:00,54.2,31.0,29.58,WNW,285,7.0,13.0,41,0.00,,,0.01,Wunderground v.1.12,2013-03-31 23:50:00,
2013-03-31 19:55:00,53.9,31.3,29.58,WSW,256,9.0,10.0,42,0.00,,,0.01,Wunderground v.1.12,2013-03-31 23:55:00,
2013-03-31 20:01:00,53.6,31.0,29.58,West,266,5.0,8.0,42,0.00,,,0.01,Wunderground v.1.12,2013-04-01 00:01:00,
2013-03-31 20:06:00,53.3,31.4,29.58,NW,306,8.0,14.0,43,0.00,,,0.01,Wunderground v.1.12,2013-04-01 00:06:00,
2013-03-31 20:11:00,53.1,32.3,29.58,WNW,302,12.0,12.0,45,0.00,,,0.01,Wunderground v.1.12,2013-04-01 00:11:00,
2013-03-31 20:16:00,52.8,32.6,29.58,WNW,300,9.0,9.0,46,0.00,,,0.01,Wunderground v.1.12,2013-04-01 00:16:00,
2013-03-31 20:21:00,52.5,32.8,29.58,NW,305,11.0,12.0,47,0.00,,,0.01,Wunderground v.1.12,2013-04-01 00:21:00,
2013-03-31 20:26:00,52.2,32.6,29.59,West,267,4.0,11.0,47,0.00,,,0.01,Wunderground v.1.12,2013-04-01 00:26:00,
2013-03-31 20:32:00,51.9,32.8,29.59,WNW,293,7.0,11.0,48,0.00,,,0.01,Wunderground v.1.12,2013-04-01 00:32:00,
2013-03-31 20:37:00,51.6,32.5,29.59,WNW,298,4.0,7.0,48,0.00,,,0.01,Wunderground v.1.12,2013-04-01 00:37:00,
2013-03-31 20:42:00,51.3,32.8,29.60,WNW,283,3.0,9.0,49,0.00,,,0.01,Wunderground v.1.12,2013-04-01 00:42:00,
2013-03-31 20:47:00,51.0,32.5,29.60,WNW,295,5.0,6.0,49,0.00,,,0.01,Wunderground v.1.12,2013-04-01 00:47:00,
2013-03-31 20:52:00,50.8,32.8,29.60,WNW,293,3.0,5.0,50,0.00,,,0.01,Wunderground v.1.12,2013-04-01 00:52:00,
2013-03-31 20:57:00,50.5,33.0,29.60,NW,306,1.0,7.0,51,0.00,,,0.01,Wunderground v.1.12,2013-04-01 00:57:00,
2013-03-31 21:02:00,50.2,33.2,29.60,WNW,300,2.0,6.0,52,0.00,,,0.01,Wunderground v.1.12,2013-04-01 01:02:00,
2013-03-31 21:07:00,50.1,33.6,29.60,WNW,300,3.0,8.0,53,0.00,,,0.01,Wunderground v.1.12,2013-04-01 01:07:00,
2013-03-31 21:13:00,49.8,33.3,29.60,WNW,292,2.0,8.0,53,0.00,,,0.01,Wunderground v.1.12,2013-04-01 01:13:00,
2013-03-31 21:18:00,49.6,33.6,29.60,WNW,293,5.0,7.0,54,0.00,,,0.01,Wunderground v.1.12,2013-04-01 01:18:00,
2013-03-31 21:23:00,49.6,33.6,29.60,WNW,283,7.0,7.0,54,0.00,,,0.01,Wunderground v.1.12,2013-04-01 01:23:00,
2013-03-31 21:28:00,49.6,34.1,29.61,West,275,7.0,8.0,55,0.00,,,0.01,Wunderground v.1.12,2013-04-01 01:28:00,
2013-03-31 21:33:00,49.6,34.1,29.61,WNW,297,4.0,6.0,55,0.00,,,0.01,Wunderground v.1.12,2013-04-01 01:33:00,
2013-03-31 21:38:00,49.5,34.0,29.61,West,263,11.0,11.0,55,0.00,,,0.01,Wunderground v.1.12,2013-04-01 01:38:00,
2013-03-31 21:43:00,49.2,35.0,29.61,WNW,297,6.0,11.0,58,0.00,,,0.01,Wunderground v.1.12,2013-04-01 01:43:00,
2013-03-31 21:48:00,48.9,35.6,29.61,WNW,291,5.0,10.0,60,0.00,,,0.01,Wunderground v.1.12,2013-04-01 01:48:00,
2013-03-31 21:53:00,48.6,36.2,29.61,NNW,327,10.0,12.0,62,0.00,,,0.01,Wunderground v.1.12,2013-04-01 01:53:00,
2013-03-31 21:58:00,48.2,36.6,29.61,NW,310,5.0,9.0,64,0.00,,,0.01,Wunderground v.1.12,2013-04-01 01:58:00,
2013-03-31 22:03:00,47.9,36.3,29.61,NW,308,6.0,9.0,64,0.00,,,0.01,Wunderground v.1.12,2013-04-01 02:03:00,
2013-03-31 22:08:00,47.6,36.4,29.61,West,281,3.0,6.0,65,0.00,,,0.01,Wunderground v.1.12,2013-04-01 02:08:00,
2013-03-31 22:14:00,47.4,36.6,29.61,West,271,5.0,8.0,66,0.00,,,0.01,Wunderground v.1.12,2013-04-01 02:14:00,
2013-03-31 22:20:00,47.3,36.9,29.61,West,267,6.0,6.0,67,0.00,,,0.01,Wunderground v.1.12,2013-04-01 02:20:00,
2013-03-31 22:25:00,47.1,36.7,29.61,West,277,4.0,4.0,67,0.00,,,0.01,Wunderground v.1.12,2013-04-01 02:25:00,
2013-03-31 22:30:00,47.0,36.6,29.61,West,279,4.0,4.0,67,0.00,,,0.01,Wunderground v.1.12,2013-04-01 02:30:00,
2013-03-31 22:35:00,47.0,37.0,29.61,West,273,5.0,5.0,68,0.00,,,0.01,Wunderground v.1.12,2013-04-01 02:35:00,
2013-03-31 22:40:00,47.0,37.0,29.61,NW,323,5.0,5.0,68,0.00,,,0.01,Wunderground v.1.12,2013-04-01 02:40:00,
2013-03-31 22:45:00,47.0,37.7,29.63,NW,316,9.0,9.0,70,0.00,,,0.01,Wunderground v.1.12,2013-04-01 02:45:00,
2013-03-31 22:50:00,46.4,37.5,29.63,NW,307,7.0,9.0,71,0.00,,,0.01,Wunderground v.1.12,2013-04-01 02:50:00,
2013-03-31 22:55:00,45.8,37.6,29.63,NW,315,4.0,8.0,73,0.00,,,0.01,Wunderground v.1.12,2013-04-01 02:55:00,
2013-03-31 23:00:00,45.5,37.7,29.63,NW,314,6.0,7.0,74,0.00,,,0.01,Wunderground v.1.12,2013-04-01 03:00:00,
2013-03-31 23:05:00,45.4,37.6,29.63,NW,316,3.0,6.0,74,0.00,,,0.01,Wunderground v.1.12,2013-04-01 03:05:00,
2013-03-31 23:10:00,45.2,37.4,29.63,NW,311,4.0,5.0,74,0.00,,,0.01,Wunderground v.1.12,2013-04-01 03:10:00,
2013-03-31 23:15:00,45.1,37.3,29.63,WNW,293,7.0,7.0,74,0.00,,,0.01,Wunderground v.1.12,2013-04-01 03:15:00,
2013-03-31 23:20:00,45.1,37.3,29.63,WNW,291,4.0,6.0,74,0.00,,,0.01,Wunderground v.1.12,2013-04-01 03:20:00,
2013-03-31 23:25:00,44.9,36.8,29.63,WNW,283,6.0,6.0,73,0.00,,,0.01,Wunderground v.1.12,2013-04-01 03:25:00,
2013-03-31 23:30:00,44.6,35.1,29.63,WNW,302,5.0,12.0,69,0.00,,,0.01,Wunderground v.1.12,2013-04-01 03:30:00,
2013-03-31 23:35:00,44.5,34.2,29.63,West,271,8.0,10.0,67,0.00,,,0.01,Wunderground v.1.12,2013-04-01 03:35:00,
2013-03-31 23:40:00,44.5,33.5,29.63,WNW,297,5.0,7.0,65,0.00,,,0.01,Wunderground v.1.12,2013-04-01 03:40:00,
2013-03-31 23:45:00,44.3,32.9,29.64,NW,305,5.0,7.0,64,0.00,,,0.01,Wunderground v.1.12,2013-04-01 03:45:00,
2013-03-31 23:50:00,44.1,32.3,29.64,West,271,11.0,11.0,63,0.00,,,0.01,Wunderground v.1.12,2013-04-01 03:50:00,
2013-03-31 23:55:00,43.9,32.1,29.64,NW,308,7.0,9.0,63,0.00,,,0.01,Wunderground v.1.12,2013-04-01 03:55:00,